This is the latest recevied weather packets stored in our database for station/object SP3SWJ-13. If no packets are shown the sender has not sent any weather packets the latest 10 day(s).
| Time | Temp. | Humidity | Pressure | Rain* | Wind** | Luminosity | Snow |
|---|---|---|---|---|---|---|---|
| 1778088366 | 13.33° C | 75% | 997.1 hPa | - | - | 29 W/m² | - |
| 1778088065 | 13.89° C | 74% | 997.1 hPa | - | - | 27 W/m² | - |
| 1778087764 | 13.89° C | 74% | 997.2 hPa | - | - | 27 W/m² | - |
| 1778087463 | 13.89° C | 73% | 997.2 hPa | - | - | 27 W/m² | - |
| 1778087162 | 13.89° C | 73% | 997.3 hPa | - | - | 32 W/m² | - |
| 1778086861 | 14.44° C | 71% | 997.2 hPa | - | - | 35 W/m² | - |
| 1778086560 | 15° C | 69% | 997.1 hPa | - | - | 42 W/m² | - |
| 1778086259 | 15° C | 69% | 997 hPa | - | - | 71 W/m² | - |
| 1778085958 | 15° C | 69% | 997 hPa | - | - | 78 W/m² | - |
| 1778085657 | 15.56° C | 68% | 997 hPa | - | - | 61 W/m² | - |
| 1778085356 | 15° C | 70% | 996.9 hPa | - | - | 99 W/m² | - |
| 1778085055 | 15° C | 70% | 997 hPa | - | - | 49 W/m² | - |
| 1778084755 | 15.56° C | 70% | 997 hPa | - | - | 125 W/m² | - |
| 1778084454 | 15.56° C | 69% | 997 hPa | - | - | 73 W/m² | - |
| 1778084152 | 15.56° C | 69% | 997 hPa | - | - | 170 W/m² | - |
| 1778083851 | 15° C | 71% | 997.1 hPa | - | - | 78 W/m² | - |
| 1778083550 | 15.56° C | 69% | 997.1 hPa | - | - | 141 W/m² | - |
| 1778083249 | 15.56° C | 69% | 997.1 hPa | - | - | 188 W/m² | - |
| 1778082948 | 16.11° C | 68% | 997 hPa | - | - | 158 W/m² | - |
| 1778082647 | 16.67° C | 65% | 996.9 hPa | - | - | 197 W/m² | - |
| 1778082346 | 16.67° C | 67% | 996.9 hPa | - | - | 211 W/m² | - |
| 1778082045 | 17.22° C | 64% | 996.9 hPa | - | - | 218 W/m² | - |
| 1778081744 | 17.78° C | 64% | 996.9 hPa | - | - | 226 W/m² | - |
| 1778081443 | 17.22° C | 66% | 996.8 hPa | - | - | 238 W/m² | - |
| 1778081142 | 18.33° C | 63% | 996.6 hPa | - | - | 252 W/m² | - |
* Rain since midnight (hover to see other rain measurements)
** Current wind speed in m/s (hover to see current wind gust speed)